Retour au catalogue

CZ-6A DEB

ActifSSO
NORAD 55238·DEBRIS·🇨🇳 China

Lancé Nov 11, 2022 depuis Taiyuan Satellite Launch Center

Loading…

Prochains Passages (prochaines 24 heures)

TLE

FraisSource: Space-Track

Époque: Sep 14, 2026, 12:15 UTC

1 55238U 22151XF  26257.51083971  .00000212  00000-0  12072-3 0  9990
2 55238  98.7829 274.7132 0026189 288.2177  71.6149 14.19868247198887

Suivez CZ-6A DEB en temps réel avec AllMySat

Download on the App Store